DW7835 Weather Reports


time (UTC)temp
C
wind
direction
speed
KPH
gust
KPH
rain 1hr
cm
rain 24hr
cm
rain mn
cm
humidity
%
barometer
mb
20260507110003 18 312 19.3 20.9 0.00 0.00 0.00 41 1015.6
20260507105913 17 316 16.1 19.3 0.00 0.00 0.00 41 1015.7
20260507105504 18 306 19.3 20.9 0.00 0.00 0.00 41 1015.6
20260507105409 18 298 16.1 19.3 0.00 0.00 0.00 41 1015.6
20260507104906 18 324 17.7 20.9 0.00 0.00 0.00 41 1015.5
20260507104403 18 324 17.7 20.9 0.00 0.00 0.00 41 1015.5
20260507104024 19 315 19.3 24.1 0.00 0.00 0.00 41 1015.6
20260507103858 18 322 17.7 19.3 0.00 0.00 0.00 41 1015.5
20260507103503 19 310 20.9 24.1 0.00 0.00 0.00 40 1015.6
20260507103356 18 316 19.3 20.9 0.00 0.00 0.00 40 1015.5
20260507103024 19 310 20.9 24.1 0.00 0.00 0.00 40 1015.6
20260507102852 18 307 19.3 20.9 0.00 0.00 0.00 40 1015.8
20260507102503 19 316 20.9 24.1 0.00 0.00 0.00 41 1015.8
20260507102348 18 324 19.3 20.9 0.00 0.00 0.00 41 1015.7
20260507102003 19 316 19.3 24.1 0.00 0.00 0.00 41 1015.5
20260507101845 18 322 19.3 20.9 0.00 0.00 0.00 41 1015.7
20260507101503 19 310 19.3 24.1 0.00 0.00 0.00 40 1015.7
20260507101345 18 326 19.3 20.9 0.00 0.00 0.00 40 1015.6
20260507101003 19 308 17.7 20.9 0.00 0.00 0.00 40 1015.6
20260507100842 18 300 19.3 20.9 0.00 0.00 0.00 40 1015.7
20260507100503 19 318 17.7 19.3 0.00 0.00 0.00 40 1015.6
20260507100340 18 321 16.1 16.1 0.00 0.00 0.00 40 1015.6
20260507100003 19 320 16.1 19.3 0.00 0.00 0.00 40 1015.6
20260507095838 18 318 12.9 14.5 0.00 0.00 0.00 40 1015.7
20260507095503 19 316 16.1 19.3 0.00 0.00 0.00 40 1015.5
20260507095334 18 321 16.1 19.3 0.00 0.00 0.00 40 1015.6
20260507094831 18 303 14.5 16.1 0.00 0.00 0.00 40 1015.9
20260507094503 19 314 14.5 16.1 0.00 0.00 0.00 39 1016.0
20260507094328 18 317 14.5 16.1 0.00 0.00 0.00 39 1015.7
20260507094003 19 313 16.1 19.3 0.00 0.00 0.00 39 1015.6
20260507093825 18 318 12.9 14.5 0.00 0.00 0.00 39 1015.8
20260507093503 19 314 14.5 19.3 0.00 0.00 0.00 39 1015.6
20260507093324 18 324 14.5 16.1 0.00 0.00 0.00 39 1015.5
20260507093003 18 319 14.5 16.1 0.00 0.00 0.00 40 1015.7
20260507092821 17 328 12.9 14.5 0.00 0.00 0.00 40 1015.6
20260507092503 18 314 14.5 19.3 0.00 0.00 0.00 40 1015.7
20260507092318 17 326 12.9 14.5 0.00 0.00 0.00 40 1015.6
20260507092004 19 314 16.1 19.3 0.00 0.00 0.00 39 1016.0
20260507091814 18 301 11.3 11.3 0.00 0.00 0.00 39 1015.6
20260507091524 19 312 17.7 20.9 0.00 0.00 0.00 39 1015.7
20260507091310 18 314 16.1 19.3 0.00 0.00 0.00 39 1015.9
20260507091003 19 313 17.7 20.9 0.00 0.00 0.00 39 1015.8
20260507090805 18 304 14.5 16.1 0.00 0.00 0.00 38 1015.7
20260507090503 19 314 19.3 20.9 0.00 0.00 0.00 38 1016.1
20260507090302 18 323 16.1 16.1 0.00 0.00 0.00 38 1015.8
20260507090003 19 313 17.7 20.9 0.00 0.00 0.00 39 1015.8
20260507085759 18 297 16.1 19.3 0.00 0.00 0.00 39 1015.9
20260507085503 19 314 17.7 20.9 0.00 0.00 0.00 39 1015.8
20260507085256 18 310 14.5 16.1 0.00 0.00 0.00 39 1015.8
20260507085004 19 316 17.7 20.9 0.00 0.00 0.00 38 1015.8
20260507084753 18 305 16.1 19.3 0.00 0.00 0.00 38 1015.9
20260507084503 19 313 19.3 24.1 0.00 0.00 0.00 37 1016.1
20260507084249 18 322 14.5 14.5 0.00 0.00 0.00 36 1015.7
20260507084003 20 306 20.9 24.1 0.00 0.00 0.00 37 1016.0
20260507083747 18 321 16.1 16.1 0.00 0.00 0.00 36 1015.8
20260507083503 20 301 20.9 24.1 0.00 0.00 0.00 36 1016.0
20260507083244 18 312 20.9 20.9 0.00 0.00 0.00 36 1015.8
20260507083003 19 301 22.5 25.7 0.00 0.00 0.00 36 1015.8
20260507082740 18 284 16.1 19.3 0.00 0.00 0.00 35 1015.7
20260507082503 19 306 24.1 25.7 0.00 0.00 0.00 36 1015.8
20260507082235 18 296 20.9 24.1 0.00 0.00 0.00 35 1015.9
20260507082026 19 305 20.9 25.7 0.00 0.00 0.00 35 1016.0
20260507081732 18 302 20.9 24.1 0.00 0.00 0.00 35 1015.9
20260507081524 19 306 17.7 20.9 0.00 0.00 0.00 34 1016.0
20260507081228 18 300 14.5 14.5 0.00 0.00 0.00 33 1015.9
20260507081003 19 307 19.3 20.9 0.00 0.00 0.00 34 1016.1
20260507080725 18 319 17.7 19.3 0.00 0.00 0.00 33 1016.0
20260507080503 19 304 19.3 20.9 0.00 0.00 0.00 33 1016.3
20260507080221 18 297 17.7 20.9 0.00 0.00 0.00 31 1015.7
20260507080004 19 306 16.1 19.3 0.00 0.00 0.00 31 1015.8
20260507075717 18 320 16.1 19.3 0.00 0.00 0.00 30 1015.9
20260507075503 19 305 16.1 19.3 0.00 0.00 0.00 30 1015.8
20260507075214 18 292 14.5 14.5 0.00 0.00 0.00 29 1015.9
20260507075005 20 305 14.5 19.3 0.00 0.00 0.00 29 1016.0
20260507074710 18 309 11.3 14.5 0.00 0.00 0.00 29 1015.9
20260507074503 20 304 12.9 16.1 0.00 0.00 0.00 29 1016.0
20260507074209 18 307 12.9 14.5 0.00 0.00 0.00 28 1015.8
20260507074003 20 302 12.9 16.1 0.00 0.00 0.00 28 1016.1
20260507073704 18 287 9.7 11.3 0.00 0.00 0.00 28 1015.8
20260507073503 20 299 14.5 19.3 0.00 0.00 0.00 28 1016.1
20260507073201 18 282 9.7 9.7 0.00 0.00 0.00 28 1016.0
20260507073003 20 293 14.5 19.3 0.00 0.00 0.00 27 1016.0
20260507072659 18 301 16.1 19.3 0.00 0.00 0.00 28 1015.8
20260507072524 20 284 14.5 20.9 0.00 0.00 0.00 28 1016.1
20260507072156 18 301 11.3 11.3 0.00 0.00 0.00 29 1016.1
20260507072025 19 276 16.1 20.9 0.00 0.00 0.00 30 1016.2
20260507071653 18 291 17.7 19.3 0.00 0.00 0.00 32 1016.0
20260507071503 19 268 14.5 16.1 0.00 0.00 0.00 34 1016.0
20260507071149 18 279 12.9 16.1 0.00 0.00 0.00 34 1016.0
20260507071003 20 258 14.5 16.1 0.00 0.00 0.00 34 1016.1
20260507070647 18 249 11.3 11.3 0.00 0.00 0.00 34 1015.8
20260507070503 20 253 14.5 19.3 0.00 0.00 0.00 35 1015.8
20260507070143 18 257 12.9 14.5 0.00 0.00 0.00 35 1016.0
20260507070006 20 254 16.1 19.3 0.00 0.00 0.00 35 1015.8
20260507065640 19 244 12.9 14.5 0.00 0.00 0.00 35 1015.8
20260507065503 20 253 16.1 19.3 0.00 0.00 0.00 35 1015.7
20260507065137 18 256 14.5 16.1 0.00 0.00 0.00 35 1015.7
20260507065004 20 254 14.5 19.3 0.00 0.00 0.00 35 1015.7
20260507064634 18 258 11.3 14.5 0.00 0.00 0.00 35 1015.8
20260507064503 20 255 14.5 19.3 0.00 0.00 0.00 35 1016.0
20260507064133 18 248 14.5 16.1 0.00 0.00 0.00 34 1015.8
20260507064003 20 254 14.5 19.3 0.00 0.00 0.00 34 1015.8
20260507063630 19 268 16.1 19.3 0.00 0.00 0.00 34 1015.7
20260507063503 20 254 14.5 19.3 0.00 0.00 0.00 34 1015.8
20260507063127 19 270 11.3 14.5 0.00 0.00 0.00 33 1015.8
20260507063003 20 256 14.5 19.3 0.00 0.00 0.00 33 1016.0
20260507062623 20 267 9.7 11.3 0.00 0.00 0.00 33 1015.8
20260507062503 21 258 17.7 20.9 0.00 0.00 0.00 33 1015.8
20260507062121 20 248 14.5 16.1 0.00 0.00 0.00 33 1015.8
20260507062005 21 255 16.1 20.9 0.00 0.00 0.00 33 1016.0
20260507061619 20 256 12.9 16.1 0.00 0.00 0.00 33 1015.6
20260507061504 21 250 16.1 20.9 0.00 0.00 0.00 33 1015.7
20260507061117 20 247 12.9 16.1 0.00 0.00 0.00 34 1015.6
20260507061003 21 248 16.1 19.3 0.00 0.00 0.00 34 1015.7
20260507060615 20 232 14.5 19.3 0.00 0.00 0.00 34 1015.6
20260507060503 21 247 17.7 24.1 0.00 0.00 0.00 35 1015.6
20260507060111 20 249 17.7 19.3 0.00 0.00 0.00 35 1015.7
20260507060024 21 242 17.7 24.1 0.00 0.00 0.00 35 1015.6
20260507055606 20 249 12.9 14.5 0.00 0.00 0.00 35 1015.5
20260507055503 21 244 17.7 20.9 0.00 0.00 0.00 35 1015.7
20260507055102 20 240 14.5 19.3 0.00 0.00 0.00 35 1015.8
20260507055004 21 247 19.3 24.1 0.00 0.00 0.00 35 1015.8
20260507054558 20 245 17.7 19.3 0.00 0.00 0.00 35 1015.6
20260507054504 21 248 20.9 24.1 0.00 0.00 0.00 35 1015.6
20260507054056 20 243 17.7 19.3 0.00 0.00 0.00 34 1015.8
20260507054003 21 245 20.9 25.7 0.00 0.00 0.00 34 1015.7
20260507053553 20 242 17.7 20.9 0.00 0.00 0.00 34 1015.6
20260507053503 21 241 20.9 25.7 0.00 0.00 0.00 34 1015.6
20260507053052 20 231 16.1 19.3 0.00 0.00 0.00 35 1015.7
20260507053003 21 242 19.3 25.7 0.00 0.00 0.00 35 1015.7
20260507052549 20 232 17.7 20.9 0.00 0.00 0.00 35 1015.9
20260507052503 21 241 19.3 25.7 0.00 0.00 0.00 35 1016.0
20260507052046 20 247 12.9 16.1 0.00 0.00 0.00 35 1015.5
20260507052003 21 243 22.5 29.0 0.00 0.00 0.00 35 1015.7
20260507051543 20 240 24.1 25.7 0.00 0.00 0.00 35 1015.6
20260507051505 21 245 25.7 29.0 0.00 0.00 0.00 35 1015.6
20260507051040 21 249 19.3 24.1 0.00 0.00 0.00 35 1015.9
20260507051004 21 244 25.7 30.6 0.00 0.00 0.00 35 1016.0
20260507050537 21 239 20.9 25.7 0.00 0.00 0.00 35 1015.7
20260507050504 21 242 24.1 30.6 0.00 0.00 0.00 35 1015.7
20260507050033 21 241 19.3 24.1 0.00 0.00 0.00 34 1015.5
20260507050004 22 243 22.5 25.7 0.00 0.00 0.00 34 1015.6
20260507045530 21 246 19.3 20.9 0.00 0.00 0.00 34 1015.6
20260507045504 22 246 22.5 30.6 0.00 0.00 0.00 34 1015.6
20260507045027 21 242 14.5 16.1 0.00 0.00 0.00 34 1015.6
20260507045004 22 242 24.1 30.6 0.00 0.00 0.00 34 1015.6
20260507044525 22 238 24.1 30.6 0.00 0.00 0.00 34 1015.6
20260507044021 21 259 20.9 24.1 0.00 0.00 0.00 34 1015.8
20260507044003 22 239 22.5 30.6 0.00 0.00 0.00 34 1015.7
20260507043516 21 256 16.1 19.3 0.00 0.00 0.00 34 1015.5
20260507043503 22 240 22.5 29.0 0.00 0.00 0.00 34 1015.5
20260507043014 21 248 20.9 20.9 0.00 0.00 0.00 34 1015.6
20260507043003 22 239 22.5 25.7 0.00 0.00 0.00 34 1015.6
20260507042510 21 250 17.7 20.9 0.00 0.00 0.00 33 1015.3
20260507042503 22 235 24.1 29.0 0.00 0.00 0.00 33 1015.4
20260507042005 21 246 22.5 24.1 0.00 0.00 0.00 33 1015.3
20260507042003 22 236 24.1 29.0 0.00 0.00 0.00 33 1015.4
20260507041504 22 240 24.1 30.6 0.00 0.00 0.00 33 1015.5
20260507041024 22 239 22.5 30.6 0.00 0.00 0.00 33 1015.5
20260507041000 21 230 20.9 24.1 0.00 0.00 0.00 33 1015.3
20260507040503 22 237 19.3 24.1 0.00 0.00 0.00 33 1015.4
20260507040455 21 245 17.7 20.9 0.00 0.00 0.00 33 1015.5
20260507040003 22 235 20.9 29.0 0.00 0.00 0.00 33 1015.5
20260507035951 21 245 19.3 20.9 0.00 0.00 0.00 33 1015.5
20260507035503 23 237 22.5 29.0 0.00 0.00 0.00 32 1015.4
20260507035448 22 247 12.9 16.1 0.00 0.00 0.00 32 1015.2
20260507035003 23 234 20.9 29.0 0.00 0.00 0.00 32 1015.4
20260507034945 22 214 12.9 16.1 0.00 0.00 0.00 32 1015.1
20260507034505 23 240 16.1 25.7 0.00 0.00 0.00 32 1015.2
20260507034442 22 217 14.5 19.3 0.00 0.00 0.00 31 1015.1
20260507034003 23 249 12.9 20.9 0.00 0.00 0.00 30 1015.0
20260507033940 22 252 19.3 20.9 0.00 0.00 0.00 30 1014.9
20260507033503 23 248 8.0 11.3 0.00 0.00 0.00 28 1015.1
20260507033437 22 255 6.4 9.7 0.00 0.00 0.00 28 1015.1
20260507033003 23 257 6.4 11.3 0.00 0.00 0.00 26 1015.0
20260507032934 22 237 6.4 8.0 0.00 0.00 0.00 24 1014.9
20260507032503 24 282 6.4 6.4 0.00 0.00 0.00 23 1014.7
20260507032431 23 260 4.8 4.8 0.00 0.00 0.00 23 1014.9
20260507032003 24 294 6.4 9.7 0.00 0.00 0.00 23 1015.0
20260507031927 23 289 8.0 8.0 0.00 0.00 0.00 23 1014.9
20260507031504 24 300 8.0 9.7 0.00 0.00 0.00 23 1014.9
20260507031426 23 293 4.8 8.0 0.00 0.00 0.00 23 1014.8
20260507031024 24 302 9.7 9.7 0.00 0.00 0.00 23 1014.9
20260507030921 23 306 6.4 8.0 0.00 0.00 0.00 23 1014.8
20260507030503 24 297 8.0 9.7 0.00 0.00 0.00 23 1015.0
20260507030418 23 305 8.0 9.7 0.00 0.00 0.00 23 1014.7
20260507030003 24 297 8.0 9.7 0.00 0.00 0.00 23 1014.6
20260507025915 23 283 8.0 8.0 0.00 0.00 0.00 23 1014.6
20260507025503 25 302 8.0 11.3 0.00 0.00 0.00 23 1014.6
20260507025412 23 293 4.8 8.0 0.00 0.00 0.00 23 1014.8
20260507025003 25 301 9.7 11.3 0.00 0.00 0.00 23 1014.6
20260507024910 23 291 8.0 9.7 0.00 0.00 0.00 23 1014.6
20260507024503 25 297 9.7 11.3 0.00 0.00 0.00 22 1014.4
20260507024407 24 320 9.7 11.3 0.00 0.00 0.00 22 1014.4
20260507024003 25 297 8.0 11.3 0.00 0.00 0.00 22 1014.4
20260507023903 24 308 8.0 9.7 0.00 0.00 0.00 22 1014.4
20260507023503 25 298 6.4 9.7 0.00 0.00 0.00 22 1014.3
20260507023400 24 300 6.4 8.0 0.00 0.00 0.00 22 1014.5
20260507023003 25 294 6.4 9.7 0.00 0.00 0.00 22 1014.3
20260507022857 25 292 4.8 4.8 0.00 0.00 0.00 22 1014.2
20260507022503 26 305 8.0 11.3 0.00 0.00 0.00 22 1014.3
20260507022354 25 287 3.2 4.8 0.00 0.00 0.00 22 1014.3
20260507022024 26 319 9.7 11.3 0.00 0.00 0.00 22 1014.3
20260507021849 25 298 4.8 8.0 0.00 0.00 0.00 22 1014.3
20260507021505 26 334 12.9 19.3 0.00 0.00 0.00 22 1014.3
20260507021345 25 338 11.3 11.3 0.00 0.00 0.00 22 1014.2
20260507021003 26 337 12.9 19.3 0.00 0.00 0.00 22 1014.2
20260507020843 25 334 9.7 11.3 0.00 0.00 0.00 22 1014.2
20260507020503 26 331 11.3 16.1 0.00 0.00 0.00 22 1014.5
20260507020339 25 323 11.3 11.3 0.00 0.00 0.00 22 1014.3
20260507020003 26 315 8.0 16.1 0.00 0.00 0.00 22 1014.3
20260507015836 26 359 9.7 11.3 0.00 0.00 0.00 22 1014.3
20260507015503 27 296 4.8 9.7 0.00 0.00 0.00 22 1014.1
20260507015334 25 274 3.2 4.8 0.00 0.00 0.00 22 1014.2
20260507015004 27 302 6.4 11.3 0.00 0.00 0.00 22 1014.2
20260507014831 26 260 1.6 3.2 0.00 0.00 0.00 22 1014.0
20260507014504 26 315 9.7 14.5 0.00 0.00 0.00 22 1014.1
20260507014327 26 323 8.0 8.0 0.00 0.00 0.00 22 1014.0
20260507014004 26 332 11.3 19.3 0.00 0.00 0.00 22 1014.1
20260507013824 25 334 6.4 8.0 0.00 0.00 0.00 22 1014.2
20260507013503 26 334 14.5 25.7 0.00 0.00 0.00 22 1014.3
20260507013321 25 310 6.4 8.0 0.00 0.00 0.00 22 1014.3
20260507013003 26 344 19.3 25.7 0.00 0.00 0.00 22 1014.4
20260507012819 26 320 9.7 11.3 0.00 0.00 0.00 22 1014.3
20260507012503 26 351 20.9 25.7 0.00 0.00 0.00 22 1014.3
20260507012314 26 356 20.9 24.1 0.00 0.00 0.00 22 1014.0
20260507012003 27 350 17.7 25.7 0.00 0.00 0.00 22 1014.2
20260507011812 26 14 14.5 19.3 0.00 0.00 0.00 21 1014.2
20260507011505 27 332 16.1 25.7 0.00 0.00 0.00 21 1014.0
20260507011309 26 336 9.7 14.5 0.00 0.00 0.00 21 1014.3
20260507011003 27 305 11.3 25.7 0.00 0.00 0.00 21 1014.1
20260507010808 26 307 19.3 24.1 0.00 0.00 0.00 21 1014.3
20260507010503 27 325 11.3 20.9 0.00 0.00 0.00 21 1014.2
20260507010304 26 264 3.2 4.8 0.00 0.00 0.00 21 1014.0
20260507010003 26 324 12.9 20.9 0.00 0.00 0.00 21 1014.1
20260507005802 26 333 9.7 9.7 0.00 0.00 0.00 21 1014.2
20260507005503 27 335 11.3 20.9 0.00 0.00 0.00 21 1014.2
20260507005258 26 282 8.0 9.7 0.00 0.00 0.00 21 1014.0
20260507005003 27 353 11.3 24.1 0.00 0.00 0.00 21 1014.1
20260507004755 26 38 6.4 8.0 0.00 0.00 0.00 21 1014.2
20260507004503 27 345 17.7 30.6 0.00 0.00 0.00 22 1014.3
20260507004252 26 344 11.3 11.3 0.00 0.00 0.00 22 1014.3
20260507004004 27 345 22.5 30.6 0.00 0.00 0.00 22 1014.1
20260507003748 26 335 25.7 30.6 0.00 0.00 0.00 21 1014.2
20260507003503 27 352 22.5 33.8 0.00 0.00 0.00 21 1014.1
20260507003244 26 356 20.9 25.7 0.00 0.00 0.00 21 1014.0
20260507003003 27 7 17.7 33.8 0.00 0.00 0.00 21 1014.2
20260507002740 26 332 11.3 14.5 0.00 0.00 0.00 21 1014.2
20260507002503 27 18 11.3 16.1 0.00 0.00 0.00 22 1014.2
20260507002236 26 43 12.9 14.5 0.00 0.00 0.00 22 1013.9
20260507002003 27 44 9.7 16.1 0.00 0.00 0.00 21 1014.2
20260507001733 26 9 12.9 14.5 0.00 0.00 0.00 21 1014.0
20260507001503 26 87 11.3 20.9 0.00 0.00 0.00 21 1014.0
20260507001231 25 87 11.3 11.3 0.00 0.00 0.00 21 1013.9
20260507001003 26 57 17.7 25.7 0.00 0.00 0.00 21 1014.0
20260507000727 26 71 6.4 11.3 0.00 0.00 0.00 21 1014.2
20260507000504 27 39 19.3 25.7 0.00 0.00 0.00 21 1014.1
20260507000222 26 70 19.3 25.7 0.00 0.00 0.00 21 1013.9
20260507000004 27 29 17.7 25.7 0.00 0.00 0.00 21 1014.2
20260506235720 26 353 4.8 9.7 0.00 0.00 0.00 20 1014.0
20260506235504 27 22 20.9 30.6 0.00 0.00 0.00 20 1014.0
20260506235215 26 26 14.5 16.1 0.00 0.00 0.00 20 1014.2
20260506235004 27 11 20.9 30.6 0.00 0.00 0.00 20 1014.0
20260506234712 26 60 14.5 16.1 0.00 0.00 0.00 21 1013.9
20260506234524 27 2 14.5 29.0 0.00 0.00 0.00 20 1014.0
20260506234209 26 323 8.0 14.5 0.00 0.00 0.00 22 1013.6
20260506234003 27 339 9.7 19.3 0.00 0.00 0.00 22 1014.0
20260506233707 26 274 3.2 4.8 0.00 0.00 0.00 22 1014.0
20260506233526 27 352 11.3 19.3 0.00 0.00 0.00 22 1014.1
20260506233203 26 335 8.0 11.3 0.00 0.00 0.00 22 1014.0
20260506233024 27 18 16.1 30.6 0.00 0.00 0.00 23 1014.0
20260506232659 26 9 8.0 9.7 0.00 0.00 0.00 23 1013.8
20260506232503 27 23 19.3 30.6 0.00 0.00 0.00 23 1014.1
20260506232154 26 18 11.3 14.5 0.00 0.00 0.00 22 1014.0
20260506232003 27 14 14.5 24.1 0.00 0.00 0.00 22 1014.2
20260506231652 26 42 14.5 16.1 0.00 0.00 0.00 22 1014.2
20260506231524 27 30 14.5 24.1 0.00 0.00 0.00 22 1014.0
20260506231151 26 76 4.8 8.0 0.00 0.00 0.00 22 1014.0
20260506231024 26 44 14.5 25.7 0.00 0.00 0.00 22 1014.2
20260506230647 26 44 20.9 20.9 0.00 0.00 0.00 22 1014.0
20260506230504 27 27 12.9 25.7 0.00 0.00 0.00 22 1014.2
20260506230144 26 359 11.3 14.5 0.00 0.00 0.00 22 1014.4
20260506230003 27 37 11.3 24.1 0.00 0.00 0.00 22 1014.2
20260506225640 26 44 11.3 11.3 0.00 0.00 0.00 23 1014.3
20260506225524 27 50 9.7 16.1 0.00 0.00 0.00 23 1014.3
20260506225137 26 108 6.4 8.0 0.00 0.00 0.00 23 1014.2
20260506225003 27 41 11.3 16.1 0.00 0.00 0.00 23 1014.3
20260506224634 26 5 8.0 9.7 0.00 0.00 0.00 23 1014.5
20260506224503 27 49 16.1 30.6 0.00 0.00 0.00 23 1014.2
20260506224130 25 33 11.3 14.5 0.00 0.00 0.00 24 1014.3
20260506224003 26 55 20.9 30.6 0.00 0.00 0.00 23 1014.3
20260506223626 25 40 14.5 16.1 0.00 0.00 0.00 23 1014.4
20260506223504 26 47 20.9 30.6 0.00 0.00 0.00 23 1014.5
20260506223122 25 37 8.0 11.3 0.00 0.00 0.00 23 1014.3
20260506223003 27 25 20.9 30.6 0.00 0.00 0.00 23 1014.4
20260506222620 25 254 11.3 11.3 0.00 0.00 0.00 25 1014.6
20260506222116 25 254 11.3 11.3 0.00 0.00 0.00 25 1014.6
20260506222003 26 322 16.1 24.1 0.00 0.00 0.00 25 1014.6
20260506221614 25 358 9.7 11.3 0.00 0.00 0.00 24 1014.7
20260506221504 26 340 14.5 24.1 0.00 0.00 0.00 24 1014.6
20260506221112 25 334 20.9 24.1 0.00 0.00 0.00 24 1014.7
20260506221003 26 339 17.7 29.0 0.00 0.00 0.00 24 1014.4
20260506220608 25 104 3.2 4.8 0.00 0.00 0.00 25 1014.9
20260506220503 26 341 19.3 29.0 0.00 0.00 0.00 24 1015.0
20260506220003 26 358 14.5 25.7 0.00 0.00 0.00 24 1015.0
20260506215600 26 359 16.1 19.3 0.00 0.00 0.00 24 1014.8
20260506215503 26 8 12.9 24.1 0.00 0.00 0.00 24 1014.9
20260506215055 25 28 3.2 4.8 0.00 0.00 0.00 25 1015.1
20260506215003 26 4 19.3 25.7 0.00 0.00 0.00 25 1015.2
20260506214553 25 341 16.1 19.3 0.00 0.00 0.00 25 1015.1
20260506214503 26 359 20.9 30.6 0.00 0.00 0.00 25 1015.2
20260506214050 25 348 20.9 25.7 0.00 0.00 0.00 24 1015.1
20260506214003 26 359 19.3 30.6 0.00 0.00 0.00 25 1015.2
20260506213548 25 66 9.7 14.5 0.00 0.00 0.00 25 1014.9
20260506213505 26 3 17.7 30.6 0.00 0.00 0.00 25 1015.0
20260506213045 25 353 25.7 29.0 0.00 0.00 0.00 25 1015.2
20260506213003 26 354 16.1 30.6 0.00 0.00 0.00 25 1015.3
20260506212542 25 3 14.5 16.1 0.00 0.00 0.00 25 1015.0
20260506212503 26 343 16.1 30.6 0.00 0.00 0.00 25 1015.1
20260506212037 25 19 8.0 11.3 0.00 0.00 0.00 25 1015.5
20260506212024 26 331 14.5 20.9 0.00 0.00 0.00 25 1015.5
20260506211533 25 332 17.7 19.3 0.00 0.00 0.00 25 1015.5
20260506211503 26 344 11.3 20.9 0.00 0.00 0.00 25 1015.5
20260506211030 25 91 8.0 11.3 0.00 0.00 0.00 25 1015.3
20260506211003 26 42 8.0 11.3 0.00 0.00 0.00 25 1015.4
20260506210526 25 46 8.0 9.7 0.00 0.00 0.00 25 1015.5
20260506210504 26 19 11.3 20.9 0.00 0.00 0.00 25 1015.5
20260506210023 24 49 6.4 9.7 0.00 0.00 0.00 25 1015.5
20260506210003 25 336 16.1 25.7 0.00 0.00 0.00 25 1015.5
20260506205520 24 347 14.5 19.3 0.00 0.00 0.00 26 1015.5
20260506205503 25 325 17.7 25.7 0.00 0.00 0.00 26 1015.5
20260506205015 25 344 9.7 11.3 0.00 0.00 0.00 25 1015.6
20260506205003 25 328 16.1 20.9 0.00 0.00 0.00 25 1015.6
20260506204514 24 337 12.9 14.5 0.00 0.00 0.00 26 1015.6
20260506204503 25 326 16.1 25.7 0.00 0.00 0.00 26 1015.6
20260506204010 24 300 12.9 16.1 0.00 0.00 0.00 26 1015.8
20260506204003 25 20 14.5 25.7 0.00 0.00 0.00 26 1015.7
20260506203508 23 48 9.7 11.3 0.00 0.00 0.00 25 1015.8
20260506203024 25 105 11.3 19.3 0.00 0.00 0.00 26 1015.6
20260506203004 24 58 12.9 14.5 0.00 0.00 0.00 26 1015.6
20260506202503 25 86 14.5 24.1 0.00 0.00 0.00 26 1015.4
20260506202003 24 37 16.1 25.7 0.00 0.00 0.00 27 1015.8
20260506201958 23 73 11.3 11.3 0.00 0.00 0.00 27 1015.7
20260506201503 25 336 16.1 25.7 0.00 0.00 0.00 27 1016.0
20260506201456 23 59 12.9 16.1 0.00 0.00 0.00 26 1015.8
20260506201024 24 331 16.1 25.7 0.00 0.00 0.00 26 1016.1
20260506200952 23 310 16.1 19.3 0.00 0.00 0.00 26 1015.9
20260506200504 25 351 16.1 25.7 0.00 0.00 0.00 26 1016.2
20260506200449 24 336 19.3 24.1 0.00 0.00 0.00 26 1016.0
20260506200003 25 9 14.5 20.9 0.00 0.00 0.00 26 1016.1
20260506195945 23 10 14.5 19.3 0.00 0.00 0.00 26 1016.0
20260506195503 24 51 14.5 20.9 0.00 0.00 0.00 27 1016.1
20260506195442 23 336 8.0 14.5 0.00 0.00 0.00 27 1016.1
20260506195024 24 59 12.9 19.3 0.00 0.00 0.00 27 1016.2
20260506194938 23 62 14.5 16.1 0.00 0.00 0.00 27 1016.0
20260506194503 25 16 14.5 24.1 0.00 0.00 0.00 26 1016.3
20260506194436 23 18 8.0 9.7 0.00 0.00 0.00 26 1016.2
20260506194024 25 12 17.7 24.1 0.00 0.00 0.00 27 1016.4
20260506193933 23 6 17.7 20.9 0.00 0.00 0.00 26 1016.1
20260506193504 24 14 17.7 24.1 0.00 0.00 0.00 26 1016.2
20260506193430 23 43 14.5 19.3 0.00 0.00 0.00 27 1016.0
20260506193003 23 15 16.1 24.1 0.00 0.00 0.00 28 1016.3
20260506192926 22 34 8.0 9.7 0.00 0.00 0.00 28 1016.3
20260506192524 24 359 11.3 19.3 0.00 0.00 0.00 27 1016.3
20260506192423 23 334 14.5 16.1 0.00 0.00 0.00 27 1016.2
20260506192003 23 350 11.3 24.1 0.00 0.00 0.00 27 1016.3
20260506191920 23 305 11.3 14.5 0.00 0.00 0.00 27 1016.3
20260506191503 23 333 14.5 25.7 0.00 0.00 0.00 27 1016.4
20260506191417 22 351 11.3 14.5 0.00 0.00 0.00 28 1016.3
20260506191003 23 337 16.1 25.7 0.00 0.00 0.00 27 1016.4
20260506190914 22 342 9.7 11.3 0.00 0.00 0.00 28 1016.4
20260506190503 23 350 20.9 29.0 0.00 0.00 0.00 28 1016.5
20260506190410 22 358 12.9 16.1 0.00 0.00 0.00 28 1016.4
20260506190005 23 3 20.9 29.0 0.00 0.00 0.00 28 1016.5
20260506185907 22 7 19.3 24.1 0.00 0.00 0.00 28 1016.4
20260506185504 23 15 17.7 29.0 0.00 0.00 0.00 28 1016.6
20260506185404 22 352 20.9 29.0 0.00 0.00 0.00 27 1016.5
20260506185003 23 5 14.5 25.7 0.00 0.00 0.00 29 1016.6
20260506184901 22 11 17.7 20.9 0.00 0.00 0.00 29 1016.6
20260506184504 23 357 12.9 20.9 0.00 0.00 0.00 29 1016.6
20260506184358 22 341 11.3 14.5 0.00 0.00 0.00 29 1016.4
20260506184003 23 10 16.1 20.9 0.00 0.00 0.00 29 1016.7
20260506183855 22 351 17.7 20.9 0.00 0.00 0.00 28 1016.6
20260506183504 22 10 14.5 20.9 0.00 0.00 0.00 29 1016.6
20260506183350 22 23 8.0 9.7 0.00 0.00 0.00 29 1016.5
20260506183025 22 355 14.5 20.9 0.00 0.00 0.00 30 1016.7
20260506182848 22 15 14.5 16.1 0.00 0.00 0.00 30 1016.6
20260506182503 22 339 14.5 24.1 0.00 0.00 0.00 29 1016.5
20260506182345 21 284 9.7 11.3 0.00 0.00 0.00 29 1016.6
20260506182003 23 339 14.5 25.7 0.00 0.00 0.00 29 1016.7
20260506181842 21 2 19.3 24.1 0.00 0.00 0.00 29 1016.6
20260506181503 22 339 14.5 25.7 0.00 0.00 0.00 30 1016.8
20260506181340 21 314 19.3 20.9 0.00 0.00 0.00 30 1016.9
20260506181003 22 346 16.1 25.7 0.00 0.00 0.00 30 1016.8
20260506180837 21 322 12.9 16.1 0.00 0.00 0.00 30 1016.6
20260506180503 22 335 17.7 25.7 0.00 0.00 0.00 30 1016.7
20260506180333 21 324 14.5 16.1 0.00 0.00 0.00 31 1016.4
20260506180004 21 316 19.3 24.1 0.00 0.00 0.00 31 1016.7
20260506175829 20 298 14.5 16.1 0.00 0.00 0.00 31 1016.6
20260506175503 21 325 19.3 25.7 0.00 0.00 0.00 32 1016.8
20260506175327 20 330 20.9 24.1 0.00 0.00 0.00 32 1016.8
20260506175003 21 336 19.3 25.7 0.00 0.00 0.00 32 1016.7
20260506174824 20 345 8.0 9.7 0.00 0.00 0.00 32 1016.5
20260506174503 21 335 22.5 29.0 0.00 0.00 0.00 33 1016.7
20260506174321 20 323 19.3 20.9 0.00 0.00 0.00 33 1016.8
20260506174003 21 341 22.5 29.0 0.00 0.00 0.00 32 1016.7
20260506173818 20 334 16.1 19.3 0.00 0.00 0.00 32 1016.6
20260506173503 21 340 22.5 29.0 0.00 0.00 0.00 32 1016.7
20260506173315 20 335 16.1 19.3 0.00 0.00 0.00 33 1016.8
20260506173025 21 339 24.1 29.0 0.00 0.00 0.00 34 1016.8
20260506172812 20 292 16.1 24.1 0.00 0.00 0.00 33 1016.8
20260506172503 20 333 22.5 30.6 0.00 0.00 0.00 33 1016.8
20260506172309 19 336 20.9 24.1 0.00 0.00 0.00 34 1016.6
20260506172003 20 332 20.9 30.6 0.00 0.00 0.00 34 1016.8
20260506171806 18 314 17.7 24.1 0.00 0.00 0.00 35 1016.5
20260506171503 20 331 22.5 29.0 0.00 0.00 0.00 34 1016.7
20260506171303 19 338 25.7 29.0 0.00 0.00 0.00 35 1016.5
20260506171003 20 327 25.7 30.6 0.00 0.00 0.00 36 1016.6
20260506170801 18 310 16.1 19.3 0.00 0.00 0.00 36 1016.4
20260506170504 20 325 27.4 30.6 0.00 0.00 0.00 36 1016.5
20260506170257 18 325 24.1 29.0 0.00 0.00 0.00 35 1016.4
20260506170005 20 322 25.7 30.6 0.00 0.00 0.00 35 1016.5
20260506165756 18 320 27.4 29.0 0.00 0.00 0.00 35 1016.4
20260506165504 20 322 25.7 30.6 0.00 0.00 0.00 36 1016.4
20260506165253 18 336 16.1 20.9 0.00 0.00 0.00 36 1016.4
20260506165004 20 325 25.7 30.6 0.00 0.00 0.00 35 1016.4
20260506164749 18 344 22.5 25.7 0.00 0.00 0.00 37 1016.4
20260506164504 19 331 27.4 30.6 0.00 0.00 0.00 37 1016.5
20260506164246 18 321 24.1 25.7 0.00 0.00 0.00 36 1016.3
20260506164025 19 328 25.7 30.6 0.00 0.00 0.00 37 1016.5
20260506163743 18 327 22.5 29.0 0.00 0.00 0.00 36 1016.4
20260506163503 19 325 24.1 30.6 0.00 0.00 0.00 36 1016.4
20260506163238 18 318 24.1 29.0 0.00 0.00 0.00 37 1016.3
20260506163005 18 322 24.1 30.6 0.00 0.00 0.00 37 1016.3
20260506162734 17 290 20.9 29.0 0.00 0.00 0.00 38 1016.2
20260506162503 18 318 25.7 30.6 0.00 0.00 0.00 39 1016.3
20260506162232 17 325 27.4 30.6 0.00 0.00 0.00 38 1016.4
20260506162024 18 324 25.7 30.6 0.00 0.00 0.00 40 1016.4
20260506161729 17 305 24.1 29.0 0.00 0.00 0.00 40 1016.3
20260506161524 18 329 25.7 30.6 0.00 0.00 0.00 41 1016.2
20260506161226 17 331 22.5 29.0 0.00 0.00 0.00 40 1016.2
20260506161003 18 333 24.1 29.0 0.00 0.00 0.00 40 1016.3
20260506160724 16 338 19.3 20.9 0.00 0.00 0.00 41 1016.3
20260506160503 17 331 22.5 29.0 0.00 0.00 0.00 41 1016.3
20260506160220 16 332 16.1 20.9 0.00 0.00 0.00 41 1016.2
20260506160004 17 321 22.5 29.0 0.00 0.00 0.00 42 1016.2
20260506155719 16 346 9.7 14.5 0.00 0.00 0.00 42 1016.2
20260506155524 17 316 20.9 25.7 0.00 0.00 0.00 42 1016.1
20260506155216 16 336 16.1 19.3 0.00 0.00 0.00 41 1016.3
20260506155003 17 317 20.9 25.7 0.00 0.00 0.00 40 1016.1
20260506154503 17 306 20.9 25.7 0.00 0.00 0.00 42 1016.2
20260506154024 17 302 20.9 24.1 0.00 0.00 0.00 42 1016.1
20260506153503 16 308 20.9 29.0 0.00 0.00 0.00 43 1016.2
20260506153323 15 297 19.3 20.9 0.00 0.00 0.00 43 1016.1
20260506153025 16 312 19.3 29.0 0.00 0.00 0.00 43 1016.1
20260506152820 16 326 20.9 25.7 0.00 0.00 0.00 43 1016.0
20260506152503 16 309 19.3 24.1 0.00 0.00 0.00 44 1016.0
20260506152317 15 324 16.1 19.3 0.00 0.00 0.00 44 1016.1
20260506152003 16 309 17.7 24.1 0.00 0.00 0.00 44 1016.1
20260506151816 15 309 17.7 19.3 0.00 0.00 0.00 44 1016.1
20260506151503 16 308 17.7 24.1 0.00 0.00 0.00 44 1016.2
20260506151312 15 312 17.7 19.3 0.00 0.00 0.00 45 1016.0
20260506151024 16 304 17.7 20.9 0.00 0.00 0.00 45 1016.4
20260506150809 15 320 11.3 11.3 0.00 0.00 0.00 46 1016.0
20260506150503 16 300 19.3 24.1 0.00 0.00 0.00 45 1016.1
20260506150306 15 300 17.7 20.9 0.00 0.00 0.00 46 1016.0
20260506150005 15 301 19.3 24.1 0.00 0.00 0.00 47 1016.0
20260506145803 14 296 11.3 14.5 0.00 0.00 0.00 48 1016.1
20260506145503 15 305 17.7 24.1 0.00 0.00 0.00 48 1016.2
20260506145259 14 297 17.7 19.3 0.00 0.00 0.00 48 1016.2
20260506145003 15 311 20.9 29.0 0.00 0.00 0.00 48 1016.3
20260506144757 13 291 11.3 11.3 0.00 0.00 0.00 50 1016.1
20260506144503 15 312 22.5 29.0 0.00 0.00 0.00 49 1016.2
20260506144254 13 321 17.7 24.1 0.00 0.00 0.00 49 1015.9
20260506144003 14 303 20.9 25.7 0.00 0.00 0.00 50 1016.2
20260506143752 13 308 14.5 20.9 0.00 0.00 0.00 50 1016.2
20260506143524 14 303 22.5 29.0 0.00 0.00 0.00 50 1016.0
20260506143248 13 284 16.1 19.3 0.00 0.00 0.00 51 1015.9
20260506143003 14 306 22.5 29.0 0.00 0.00 0.00 51 1016.0
20260506142747 13 305 22.5 24.1 0.00 0.00 0.00 51 1016.0
20260506142503 14 305 24.1 30.6 0.00 0.00 0.00 51 1016.2
20260506142245 13 299 22.5 25.7 0.00 0.00 0.00 52 1016.0
20260506142003 13 303 22.5 30.6 0.00 0.00 0.00 52 1016.2
20260506141743 12 303 17.7 19.3 0.00 0.00 0.00 52 1015.9
20260506141524 13 307 20.9 29.0 0.00 0.00 0.00 53 1016.0
20260506141241 12 291 17.7 20.9 0.00 0.00 0.00 54 1015.9
20260506141003 13 312 17.7 24.1 0.00 0.00 0.00 54 1016.1
20260506140738 12 326 12.9 14.5 0.00 0.00 0.00 54 1015.8
20260506140503 13 309 19.3 24.1 0.00 0.00 0.00 54 1016.0
20260506140235 12 311 16.1 19.3 0.00 0.00 0.00 55 1015.8
20260506140003 12 314 17.7 24.1 0.00 0.00 0.00 56 1015.7
20260506135732 11 323 12.9 16.1 0.00 0.00 0.00 56 1015.6
20260506135504 12 317 16.1 20.9 0.00 0.00 0.00 56 1015.8
20260506135228 11 344 11.3 14.5 0.00 0.00 0.00 56 1015.7
20260506135004 12 315 16.1 20.9 0.00 0.00 0.00 57 1015.5
20260506134725 11 305 11.3 11.3 0.00 0.00 0.00 57 1015.6
20260506134504 12 310 12.9 19.3 0.00 0.00 0.00 58 1015.6
20260506134221 11 312 11.3 11.3 0.00 0.00 0.00 58 1015.3
20260506134003 12 306 11.3 14.5 0.00 0.00 0.00 58 1015.6
20260506133719 11 306 12.9 14.5 0.00 0.00 0.00 58 1015.6
20260506133505 12 304 11.3 14.5 0.00 0.00 0.00 58 1015.5
20260506133215 11 310 8.0 9.7 0.00 0.00 0.00 59 1015.3
20260506133003 11 300 12.9 14.5 0.00 0.00 0.00 59 1015.5
20260506132712 10 289 11.3 11.3 0.00 0.00 0.00 59 1015.5
20260506132503 11 302 12.9 16.1 0.00 0.00 0.00 59 1015.3
20260506132209 10 302 9.7 11.3 0.00 0.00 0.00 59 1015.3
20260506132003 11 299 12.9 16.1 0.00 0.00 0.00 60 1015.4
20260506131707 10 306 11.3 11.3 0.00 0.00 0.00 60 1015.2
20260506131503 11 293 14.5 16.1 0.00 0.00 0.00 60 1015.4
20260506131203 10 299 16.1 16.1 0.00 0.00 0.00 60 1015.3
20260506131003 11 294 14.5 25.7 0.00 0.00 0.00 60 1015.2
20260506130700 10 287 11.3 14.5 0.00 0.00 0.00 59 1015.2
20260506130503 11 295 16.1 25.7 0.00 0.00 0.00 59 1015.2
20260506130157 10 301 14.5 16.1 0.00 0.00 0.00 60 1015.1
20260506130003 11 297 16.1 24.1 0.00 0.00 0.00 59 1015.1
20260506125655 10 310 12.9 14.5 0.00 0.00 0.00 60 1015.0
20260506125503 11 302 17.7 25.7 0.00 0.00 0.00 60 1015.2
20260506125153 10 312 12.9 16.1 0.00 0.00 0.00 59 1015.0
20260506125003 11 308 22.5 29.0 0.00 0.00 0.00 59 1015.1
20260506124650 11 304 22.5 25.7 0.00 0.00 0.00 58 1015.0
20260506124524 11 310 24.1 33.8 0.00 0.00 0.00 58 1015.1
20260506124148 11 305 20.9 29.0 0.00 0.00 0.00 58 1014.7
20260506124003 12 306 25.7 33.8 0.00 0.00 0.00 58 1014.7
20260506123645 11 304 22.5 29.0 0.00 0.00 0.00 57 1014.8
20260506123504 12 306 25.7 33.8 0.00 0.00 0.00 57 1014.9
20260506123144 11 297 19.3 24.1 0.00 0.00 0.00 58 1014.7
20260506123003 11 309 25.7 30.6 0.00 0.00 0.00 58 1014.7
20260506122640 11 311 20.9 25.7 0.00 0.00 0.00 58 1014.8
20260506122503 12 310 25.7 30.6 0.00 0.00 0.00 58 1014.7
20260506122138 11 308 24.1 29.0 0.00 0.00 0.00 58 1014.7
20260506122004 11 314 25.7 33.8 0.00 0.00 0.00 58 1014.9
20260506121635 11 325 22.5 29.0 0.00 0.00 0.00 58 1014.5
20260506121504 12 321 25.7 33.8 0.00 0.00 0.00 58 1014.6
20260506121131 11 285 22.5 24.1 0.00 0.00 0.00 58 1014.6
20260506121004 12 323 25.7 33.8 0.00 0.00 0.00 58 1014.6
20260506120630 11 340 20.9 20.9 0.00 0.00 0.00 58 1014.7
20260506120505 12 320 29.0 33.8 0.00 0.00 0.00 58 1014.9
20260506120127 11 318 20.9 24.1 0.00 0.00 0.00 57 1014.6
20260506120025 12 317 29.0 35.4 0.00 0.00 0.00 57 1014.5
20260506115625 11 318 22.5 30.6 0.00 0.00 0.00 57 1014.4
20260506115503 12 318 30.6 35.4 0.00 0.00 0.00 57 1014.7
20260506115123 11 322 25.7 30.6 0.00 0.00 0.00 57 1014.6
20260506115003 12 316 29.0 35.4 0.00 0.00 0.00 57 1014.6
20260506114620 11 325 27.4 33.8 0.00 0.00 0.00 56 1014.6
20260506114503 12 319 25.7 33.8 0.00 0.00 0.00 57 1014.6
20260506114118 11 321 27.4 30.6 0.00 0.00 0.00 57 1014.7
20260506114024 12 317 24.1 30.6 0.00 0.00 0.00 57 1014.7
20260506113616 11 311 16.1 16.1 0.00 0.00 0.00 57 1014.7
20260506113504 12 313 24.1 29.0 0.00 0.00 0.00 57 1014.6
20260506113113 11 310 16.1 20.9 0.00 0.00 0.00 56 1014.4
20260506113024 12 311 24.1 29.0 0.00 0.00 0.00 56 1014.4
20260506112609 11 311 24.1 25.7 0.00 0.00 0.00 56 1014.6
20260506112503 12 309 22.5 29.0 0.00 0.00 0.00 56 1014.5
20260506112107 11 314 20.9 24.1 0.00 0.00 0.00 56 1014.6
20260506112003 12 308 20.9 25.7 0.00 0.00 0.00 56 1014.6
20260506111604 11 330 16.1 19.3 0.00 0.00 0.00 56 1014.6
20260506111504 12 308 20.9 24.1 0.00 0.00 0.00 56 1014.6
20260506111102 11 297 16.1 19.3 0.00 0.00 0.00 56 1014.4
20260506111003 12 310 25.7 35.4 0.00 0.00 0.00 56 1014.4
20260506110559 11 294 27.4 29.0 0.00 0.00 0.00 55 1014.3
20260506110505 12 313 29.0 35.4 0.00 0.00 0.00 55 1014.3
20260506110056 11 325 19.3 24.1 0.00 0.00 0.00 55 1014.2